Regional Weather Roundup
Issued by NWS Spokane, WA

Home | Current Version | Previous Version | Text Only | Print | Product List | Glossary On
Versions: 1 2 3 4 5 6 7 8 9 10 11 12 13 14 15 16 17 18 19 20 21 22 23 24 25 26 27 28 29 30 31 32 33 34 35 36 37 38 39 40 41 42 43 44 45 46 47 48 49 50
000
NZUS01 KOTX 291910
RWROTX
EASTERN WASHINGTON/NORTHERN IDAHO ROUNDUP
NATIONAL WEATHER SERVICE, SPOKANE WA
1200 PM PDT SAT AUG 29 2015

Note: "fair" indicated few or no clouds below 12,000 feet with no
significant weather and/or obstructions to visibility.

...NORTHEAST WASHINGTON AND NORTHERN IDAHO PANHANDLE...

CITY           SKY/WX    TMP DP  RH WIND       PRES   REMARKS
SPOKANE INTL   DUST      73  43  33 W33G48    29.76R VSB 1
SPOKANE DOWNTO CLOUDY    77  47  34 W16G39    29.75R DUST
COEUR D ALENE  CLOUDY    79  45  29 W30G44    29.72R
DEER PARK      CLOUDY    77  45  32 SW21G32   29.71R HAZE
SANDPOINT      CLOUDY    70  52  52 CALM      29.69S
BONNERS FERRY  FAIR      66  48  52 CALM      29.69F

...SOUTHEAST WASHINGTON AND SOUTHERN IDAHO PANHANDLE...

CITY           SKY/WX    TMP DP  RH WIND       PRES   REMARKS
WALLA WALLA    CLOUDY    75  53  46 W14       29.81R
PULLMAN/MOSCOW CLOUDY    72  47  40 W15G33    29.83R HAZE
LEWISTON       CLOUDY    78  48  34 NW23G31   29.73R
LOWELL           N/A     67  54  63 CALM      29.73F

...COLUMBIA BASIN...

CITY           SKY/WX    TMP DP  RH WIND       PRES   REMARKS
EPHRATA        CLOUDY    71  47  42 SW21G28   29.67R
MOSES LAKE     CLOUDY    67  49  52 S16G26    29.70R
TRI CITIES     PTSUNNY   76  49  38 SW18G28   29.75R BLWGDUST
HERMISTON      PTSUNNY   75  53  46 W17G26    29.75R
PENDLETON      CLOUDY    73  54  51 NW9       29.81R

...EAST SLOPES CASCADES...

CITY           SKY/WX    TMP DP  RH WIND       PRES   REMARKS
THE DALLES     CLOUDY    77  48  35 W9        29.75R
YAKIMA         PTSUNNY   75  44  33 SW15G36   29.73R
ELLENSBURG     PTSUNNY   76  41  28 SW22G37   29.69R
WENATCHEE      CLOUDY    76  41  28 E5        29.63R
OMAK           CLOUDY    69  50  50 VRB6      29.58F

...SOUTHERN BRITISH COLUMBIA...

CITY           SKY/WX    TMP DP  RH WIND       PRES   REMARKS
PENTICTON      LGT RAIN  63  54  72 VRB6      29.64R SMOKE
CASTLEGAR      CLOUDY    70  54  56 S3        29.59F SMOKE
CRANBROOK      PTSUNNY   70  46  43 S8        29.74R

...WESTERN MONTANA...

CITY           SKY/WX    TMP DP  RH WIND       PRES   REMARKS
MISSOULA       CLOUDY    66  49  54 SE5       29.82F HAZE

...NEIGHBORING CITIES...

CITY           SKY/WX    TMP DP  RH WIND       PRES   REMARKS
SEATTLE        CLOUDY    69  51  52 S24G39    29.64R
CALGARY        CLOUDY    73  48  40 SE16      29.71F SMOKE



USA.gov is the U.S. government's official web portal to all federal, state and local government web resources and services.